Location: Madrid
(40.4000°N, 3.6830°W)
Time: 22:53:09
(UTC+02:00)

ISS - Pass Details

Date: 23 July 2017
Orbit: 400 x 408 km, 51.6° (Epoch: 24 July)

Event Time Altitude Azimuth Distance (km) Brightness Sun altitude
Rises 01:47:57 0° 287° (WNW) 2,309 0.3 -29.0°
Reaches altitude 10° 01:50:49 10° 315° (NW) 1,452 -0.4 -29.1°
Maximum altitude 01:52:35 14° 348° (NNW) 1,246 -0.5 -29.2°
Drops below altitude 10° 01:54:22 10° 21° (NNE) 1,454 -0.3 -29.2°
Sets 01:57:14 0° 49° (NE) 2,315 0.5 -29.3°
